TimeEST,TemperatureF,Dew PointF,Humidity,Sea Level PressureIn,VisibilityMPH,Wind Direction,Wind SpeedMPH,Gust SpeedMPH,PrecipitationIn,Events,Conditions,WindDirDegrees,DateUTC
12:53 AM,63.0,62.1,97,29.94,10.0,WNW,4.6,-,N/A,,Mostly Cloudy,300,2013-02-16 05:53:00
1:53 AM,63.0,62.1,97,29.94,10.0,WNW,4.6,-,0.00,Rain,Light Rain,300,2013-02-16 06:53:00
2:53 AM,63.0,62.1,97,29.91,10.0,NW,5.8,-,0.00,,Mostly Cloudy,320,2013-02-16 07:53:00
3:53 AM,63.0,61.0,93,29.90,10.0,NW,5.8,-,0.00,,Mostly Cloudy,310,2013-02-16 08:53:00
4:53 AM,63.0,60.1,90,29.88,10.0,NNW,4.6,-,N/A,,Mostly Cloudy,330,2013-02-16 09:53:00
5:53 AM,63.0,60.1,90,29.89,10.0,NW,6.9,-,N/A,,Mostly Cloudy,320,2013-02-16 10:53:00
6:53 AM,63.0,59.0,87,29.91,10.0,NW,6.9,-,N/A,,Overcast,320,2013-02-16 11:53:00
7:53 AM,63.0,59.0,87,29.91,10.0,NNW,8.1,-,N/A,,Overcast,330,2013-02-16 12:53:00
8:53 AM,63.0,60.1,90,29.92,10.0,NW,6.9,-,N/A,,Mostly Cloudy,320,2013-02-16 13:53:00
9:53 AM,64.9,60.1,84,29.93,10.0,NW,9.2,-,N/A,,Mostly Cloudy,310,2013-02-16 14:53:00
10:53 AM,66.9,60.1,79,29.94,10.0,WNW,10.4,-,N/A,,Mostly Cloudy,290,2013-02-16 15:53:00
11:18 AM,66.2,60.8,83,29.94,10.0,West,12.7,-,N/A,,Mostly Cloudy,270,2013-02-16 16:18:00
11:42 AM,69.8,60.8,73,29.93,10.0,West,10.4,19.6,N/A,,Mostly Cloudy,280,2013-02-16 16:42:00
11:53 AM,69.1,59.0,70,29.93,10.0,West,13.8,-,N/A,,Mostly Cloudy,280,2013-02-16 16:53:00
12:53 PM,71.1,55.0,57,29.91,10.0,West,16.1,23.0,N/A,,Mostly Cloudy,270,2013-02-16 17:53:00
1:53 PM,71.1,51.1,49,29.89,10.0,West,17.3,29.9,N/A,,Mostly Cloudy,280,2013-02-16 18:53:00
2:53 PM,72.0,46.9,41,29.88,10.0,WNW,23.0,-,N/A,,Mostly Cloudy,300,2013-02-16 19:53:00
3:53 PM,69.1,46.0,44,29.91,10.0,West,23.0,31.1,N/A,,Mostly Cloudy,280,2013-02-16 20:53:00
4:53 PM,69.1,45.0,42,29.91,10.0,WNW,16.1,26.5,N/A,,Mostly Cloudy,300,2013-02-16 21:53:00
5:53 PM,66.9,46.0,47,29.93,10.0,WNW,17.3,21.9,N/A,,Mostly Cloudy,290,2013-02-16 22:53:00
6:53 PM,64.0,48.9,58,29.95,10.0,WNW,17.3,23.0,N/A,,Mostly Cloudy,290,2013-02-16 23:53:00
7:53 PM,62.1,48.0,60,29.99,10.0,WNW,13.8,24.2,N/A,,Mostly Cloudy,290,2013-02-17 00:53:00
8:53 PM,59.0,44.1,58,30.03,10.0,WNW,13.8,23.0,N/A,,Mostly Cloudy,290,2013-02-17 01:53:00
9:53 PM,57.0,44.1,62,30.05,10.0,NW,20.7,24.2,N/A,,Scattered Clouds,310,2013-02-17 02:53:00
10:53 PM,55.0,39.9,57,30.06,10.0,NW,17.3,33.4,N/A,,Scattered Clouds,310,2013-02-17 03:53:00
11:53 PM,53.1,39.9,61,30.08,10.0,NW,18.4,21.9,N/A,,Partly Cloudy,310,2013-02-17 04:53:00